When you browse on this site, cookies collect data to enhance your experience and personalize the content and advertising you see.
Visit our Privacy Policy to learn more. By continuing to use the site, you agree to this use of cookies and data.
  • în România
  • Lista ţărilor
  • Pe 7 zile
  • Temperatura apei
  • Hartă satelitară
  • Meteo pe hartă
  • Widget-uri
  • user-avatar
    Intrare

    Meteo pe oră la Houston

    Astăzi, 26 Aprilie, Vineri

    Timp Temperatura Precipitaţii Vânt Presiune Umiditate
    00:00 +24°C° 0 mm 1 m/s 760 mmHg 61%
    01:00 +24°C° 0 mm 2 m/s 760 mmHg 62%
    02:00 +23°C° 0 mm 2 m/s 760 mmHg 63%
    03:00 +23°C° 0 mm 2 m/s 760 mmHg 64%
    04:00 +23°C° 0 mm 2 m/s 761 mmHg 66%
    05:00 +21°C° 0 mm 2 m/s 761 mmHg 67%
    06:00 +21°C° 0 mm 2 m/s 762 mmHg 69%
    07:00 +23°C° 0 mm 2 m/s 762 mmHg 65%
    08:00 +25°C° 0 mm 3 m/s 763 mmHg 62%
    09:00 +26°C° 0 mm 3 m/s 763 mmHg 59%
    10:00 +27°C° 0 mm 3 m/s 763 mmHg 54%
    11:00 +29°C° 0 mm 3 m/s 763 mmHg 49%
    12:00 +30°C° 0 mm 3 m/s 763 mmHg 43%
    13:00 +31°C° 0 mm 2 m/s 763 mmHg 40%
    14:00 +31°C° 0 mm 2 m/s 763 mmHg 37%
    15:00 +32°C° 0 mm 2 m/s 762 mmHg 34%
    16:00 +31°C° 0 mm 2 m/s 762 mmHg 36%
    17:00 +31°C° 0 mm 2 m/s 762 mmHg 38%
    18:00 +30°C° 0 mm 2 m/s 762 mmHg 40%
    19:00 +29°C° 0 mm 2 m/s 762 mmHg 46%
    20:00 +27°C° 0 mm 2 m/s 762 mmHg 53%
    21:00 +26°C° 0 mm 3 m/s 762 mmHg 59%
    22:00 +25°C° 0 mm 3 m/s 762 mmHg 62%
    23:00 +24°C° 0 mm 3 m/s 762 mmHg 66%

    Mâine, 27 Aprilie, Sâmbătă

    Timp Temperatura Precipitaţii Vânt Presiune Umiditate
    00:00 +24°C° 0 mm 3 m/s 762 mmHg 69%
    01:00 +23°C° 0 mm 2 m/s 762 mmHg 71%
    02:00 +23°C° 0 mm 2 m/s 761 mmHg 72%
    03:00 +21°C° 0 mm 2 m/s 761 mmHg 74%
    04:00 +21°C° 0 mm 2 m/s 761 mmHg 75%
    05:00 +21°C° 0 mm 2 m/s 761 mmHg 77%
    06:00 +21°C° 0 mm 2 m/s 761 mmHg 78%
    07:00 +22°C° 0 mm 3 m/s 761 mmHg 72%
    08:00 +25°C° 0 mm 3 m/s 761 mmHg 65%
    09:00 +26°C° 0 mm 4 m/s 761 mmHg 59%
    10:00 +27°C° 0 mm 5 m/s 761 mmHg 54%
    11:00 +28°C° 0 mm 5 m/s 760 mmHg 50%
    12:00 +30°C° 0 mm 6 m/s 760 mmHg 46%
    13:00 +30°C° 0 mm 6 m/s 760 mmHg 46%
    14:00 +30°C° 0 mm 6 m/s 759 mmHg 46%
    15:00 +30°C° 0 mm 6 m/s 758 mmHg 46%
    16:00 +29°C° 0 mm 5 m/s 758 mmHg 49%
    17:00 +28°C° 0 mm 5 m/s 758 mmHg 53%
    18:00 +27°C° 0 mm 5 m/s 757 mmHg 57%
    19:00 +26°C° 0 mm 5 m/s 758 mmHg 63%
    20:00 +25°C° 0 mm 4 m/s 758 mmHg 69%
    21:00 +23°C° 0 mm 4 m/s 758 mmHg 75%
    22:00 +22°C° 0 mm 4 m/s 758 mmHg 77%
    23:00 +22°C° 0 mm 4 m/s 758 mmHg 79%

    Poimâine, 28 Aprilie, Duminică

    Timp Temperatura Precipitaţii Vânt Presiune Umiditate
    00:00 +22°C° 0 mm 4 m/s 759 mmHg 81%
    01:00 +21°C° 0 mm 3 m/s 759 mmHg 82%
    02:00 +21°C° 0 mm 3 m/s 758 mmHg 83%
    03:00 +21°C° 0 mm 3 m/s 758 mmHg 84%
    04:00 +21°C° 0 mm 2 m/s 758 mmHg 85%
    05:00 +21°C° 0 mm 2 m/s 759 mmHg 86%
    06:00 +21°C° 0 mm 2 m/s 759 mmHg 87%
    07:00 +22°C° 0 mm 3 m/s 759 mmHg 81%
    08:00 +25°C° 0 mm 3 m/s 759 mmHg 75%
    09:00 +26°C° 0 mm 4 m/s 760 mmHg 68%
    10:00 +27°C° 0 mm 4 m/s 760 mmHg 63%
    11:00 +29°C° 0 mm 5 m/s 760 mmHg 58%
    12:00 +30°C° 0 mm 5 m/s 760 mmHg 52%
    13:00 +30°C° 0 mm 5 m/s 759 mmHg 52%
    14:00 +30°C° 0 mm 6 m/s 759 mmHg 53%
    15:00 +30°C° 0 mm 6 m/s 758 mmHg 53%
    16:00 +29°C° 0 mm 6 m/s 758 mmHg 56%
    17:00 +28°C° 0 mm 5 m/s 758 mmHg 60%
    18:00 +27°C° 0 mm 5 m/s 758 mmHg 63%
    19:00 +26°C° 0 mm 5 m/s 758 mmHg 68%
    20:00 +25°C° 0 mm 5 m/s 759 mmHg 73%
    21:00 +23°C° 0 mm 4 m/s 759 mmHg 78%
    22:00 +23°C° 0 mm 4 m/s 759 mmHg 80%
    23:00 +22°C° 0 mm 4 m/s 759 mmHg 82%

    29 Aprilie, Luni

    Timp Temperatura Precipitaţii Vânt Presiune Umiditate
    00:00 +22°C° 0 mm 4 m/s 759 mmHg 84%
    01:00 +22°C° 0 mm 4 m/s 759 mmHg 84%
    02:00 +22°C° 0 mm 4 m/s 758 mmHg 84%
    03:00 +22°C° 0 mm 4 m/s 758 mmHg 83%
    04:00 +22°C° 0 mm 4 m/s 758 mmHg 84%
    05:00 +22°C° 0 mm 4 m/s 758 mmHg 85%
    06:00 +22°C° 0 mm 4 m/s 758 mmHg 86%
    07:00 +23°C° 0 mm 4 m/s 759 mmHg 81%
    08:00 +26°C° 0 mm 5 m/s 759 mmHg 75%
    09:00 +27°C° 0 mm 5 m/s 760 mmHg 69%
    10:00 +28°C° 0 mm 5 m/s 760 mmHg 67%
    11:00 +28°C° 0 mm 6 m/s 760 mmHg 65%
    12:00 +29°C° 0 mm 6 m/s 760 mmHg 63%
    13:00 +30°C° 0 mm 6 m/s 759 mmHg 60%
    14:00 +32°C° 0 mm 6 m/s 759 mmHg 57%
    15:00 +32°C° 0 mm 6 m/s 758 mmHg 55%
    16:00 +30°C° 0 mm 6 m/s 758 mmHg 61%
    17:00 +29°C° 0 mm 6 m/s 758 mmHg 66%
    18:00 +28°C° 0 mm 6 m/s 758 mmHg 72%
    19:00 +27°C° 0 mm 6 m/s 759 mmHg 76%
    20:00 +27°C° 0 mm 6 m/s 759 mmHg 80%
    21:00 +26°C° 0 mm 6 m/s 759 mmHg 83%
    22:00 +26°C° 0.1 mm 6 m/s 759 mmHg 84%
    23:00 +26°C° 0.1 mm 6 m/s 759 mmHg 85%

    30 Aprilie, Marţi

    Timp Temperatura Precipitaţii Vânt Presiune Umiditate
    00:00 +26°C° 0.1 mm 6 m/s 759 mmHg 85%
    01:00 +26°C° 0 mm 6 m/s 758 mmHg 85%
    02:00 +26°C° 0 mm 6 m/s 758 mmHg 86%
    03:00 +26°C° 0 mm 5 m/s 758 mmHg 86%
    04:00 +26°C° 0 mm 5 m/s 758 mmHg 86%
    05:00 +25°C° 0 mm 5 m/s 758 mmHg 87%
    06:00 +25°C° 0 mm 5 m/s 758 mmHg 88%
    07:00 +27°C° 0 mm 5 m/s 759 mmHg 81%
    08:00 +28°C° 0 mm 6 m/s 759 mmHg 73%
    09:00 +29°C° 0 mm 6 m/s 760 mmHg 66%
    10:00 +30°C° 0 mm 7 m/s 759 mmHg 62%
    11:00 +32°C° 0 mm 7 m/s 759 mmHg 58%
    12:00 +33°C° 0 mm 8 m/s 759 mmHg 55%
    13:00 +32°C° 0 mm 7 m/s 759 mmHg 58%
    14:00 +32°C° 0 mm 7 m/s 758 mmHg 62%
    15:00 +32°C° 0 mm 7 m/s 758 mmHg 66%
    16:00 +30°C° 0.1 mm 7 m/s 758 mmHg 70%
    17:00 +29°C° 0.1 mm 6 m/s 758 mmHg 74%
    18:00 +28°C° 0.1 mm 6 m/s 758 mmHg 79%
    19:00 +28°C° 0 mm 6 m/s 759 mmHg 80%
    20:00 +27°C° 0 mm 5 m/s 759 mmHg 82%
    21:00 +27°C° 0 mm 5 m/s 759 mmHg 83%
    22:00 +27°C° 0 mm 5 m/s 759 mmHg 83%
    23:00 +27°C° 0 mm 5 m/s 759 mmHg 84%

    1 Mai, Miercuri

    Timp Temperatura Precipitaţii Vânt Presiune Umiditate
    00:00 +26°C° 0 mm 5 m/s 759 mmHg 84%
    01:00 +26°C° 0 mm 5 m/s 759 mmHg 85%
    02:00 +26°C° 0 mm 5 m/s 759 mmHg 85%
    03:00 +26°C° 0 mm 5 m/s 758 mmHg 85%
    04:00 +26°C° 0 mm 4 m/s 759 mmHg 86%
    05:00 +26°C° 0 mm 4 m/s 759 mmHg 88%
    06:00 +25°C° 0 mm 3 m/s 760 mmHg 89%
    07:00 +26°C° 0 mm 4 m/s 760 mmHg 85%
    08:00 +27°C° 0 mm 4 m/s 761 mmHg 82%
    09:00 +27°C° 0 mm 5 m/s 761 mmHg 79%
    10:00 +29°C° 0 mm 5 m/s 761 mmHg 73%
    11:00 +30°C° 0 mm 6 m/s 761 mmHg 66%
    12:00 +33°C° 0 mm 6 m/s 761 mmHg 59%
    13:00 +33°C° 0 mm 6 m/s 760 mmHg 60%
    14:00 +32°C° 0 mm 6 m/s 760 mmHg 61%
    15:00 +32°C° 0 mm 6 m/s 760 mmHg 63%
    16:00 +30°C° 0 mm 6 m/s 759 mmHg 67%
    17:00 +29°C° 0 mm 5 m/s 759 mmHg 72%
    18:00 +28°C° 0 mm 5 m/s 759 mmHg 77%
    19:00 +28°C° 0 mm 5 m/s 760 mmHg 79%
    20:00 +27°C° 0 mm 5 m/s 760 mmHg 81%
    21:00 +27°C° 0 mm 4 m/s 760 mmHg 83%
    22:00 +27°C° 0 mm 5 m/s 760 mmHg 84%
    23:00 +26°C° 0 mm 5 m/s 760 mmHg 85%
    Arată mai mult